Date String (YYYY-MM-DD hh:mm:ss) UTC,Instrument flags,Ambient pressure (hPa),Sample flow (lpm),Bypass flow (lpm),Sample temperature (°C),Ambient temperature (°C),ASC tube jacket temperature (°C),LED temperature (°C),Box temperature (°C),Sample RH (%),Span deviation,Mass concentration (μg/m³),Mass concentration (μg/m³),Mass concentration (μg/m³)
DateTimeUTC,F1_M11,P_M11,Q1_M11,Q2_M11,T1_M11,T2_M11,T3_M11,T4_M11,T5_M11,U1_M11,ZSPAN_M11,X0_M11,X2_M11,X1_M11
2022-11-11 19:00:00,,0827.2,4.99,0.00,22.1,20.7,00.0,31.0,24.0,11.4,0000.7,0015.11,0008.92,0008.14
2022-11-11 19:01:00,,0827.2,5.00,0.00,22.1,20.7,00.0,31.0,24.0,11.5,0000.4,0015.41,0008.96,0008.16
2022-11-11 19:02:00,,0827.2,5.01,0.00,22.1,20.8,00.0,31.0,24.0,11.4,0000.3,0015.57,0008.96,0008.15
2022-11-11 19:03:00,,0827.2,5.00,0.00,22.1,20.8,00.0,31.0,24.0,11.4,0000.1,0015.60,0008.92,0008.16
2022-11-11 19:04:00,,0827.2,4.99,0.00,22.1,20.9,00.0,31.0,24.0,11.5,-000.0,0015.89,0008.93,0008.17
2022-11-11 19:05:00,,0827.2,5.00,0.00,22.1,20.9,00.0,31.0,24.0,11.5,-000.1,0015.75,0008.98,0008.17
2022-11-11 19:06:00,,0827.1,5.02,0.00,22.1,20.9,00.0,31.0,24.0,11.4,-000.1,0015.45,0008.90,0008.11
2022-11-11 19:07:00,,0827.2,4.98,0.00,22.1,20.9,00.0,31.0,24.0,11.4,-000.1,0015.46,0008.79,0008.02
2022-11-11 19:08:00,,0827.1,5.01,0.00,22.2,20.9,00.0,31.0,24.0,11.4,0000.0,0016.72,0008.77,0007.99
2022-11-11 19:09:00,,0827.1,4.99,0.00,22.1,20.9,00.0,31.0,24.0,11.3,-000.1,0017.05,0008.74,0007.98
2022-11-11 19:10:00,,0827.1,5.00,0.00,22.2,20.9,00.0,31.0,24.0,11.3,-000.3,0016.40,0008.70,0007.97
2022-11-11 19:11:00,,0827.2,4.99,0.00,22.2,21.0,00.0,31.0,24.1,11.4,-000.4,0015.87,0008.63,0007.93
2022-11-11 19:12:00,,0827.1,5.02,0.00,22.2,21.0,00.0,31.0,24.1,11.3,-000.5,0015.54,0008.61,0007.91
2022-11-11 19:13:00,,0827.0,4.98,0.00,22.2,20.9,00.0,31.0,24.0,11.1,-000.6,0015.43,0008.62,0007.92
2022-11-11 19:14:00,,0827.1,5.02,0.00,22.2,20.9,00.0,31.0,24.0,11.3,-000.4,0015.66,0008.65,0007.91
2022-11-11 19:15:00,,0827.4,4.98,0.00,22.2,20.9,00.0,31.0,24.0,11.2,-000.2,0015.55,0008.67,0007.91
2022-11-11 19:16:00,,0827.2,5.01,0.00,22.2,21.0,00.0,31.0,24.0,11.2,-000.3,0015.49,0008.62,0007.90
2022-11-11 19:17:00,,0827.2,5.00,0.00,22.2,21.0,00.0,31.0,24.1,11.3,-000.5,0015.39,0008.57,0007.88
2022-11-11 19:18:00,,0827.0,5.01,0.00,22.2,21.1,00.0,31.0,24.1,11.4,-000.9,0015.12,0008.61,0007.89
2022-11-11 19:19:00,,0827.0,4.99,0.00,22.2,21.1,00.0,31.0,24.1,11.1,-001.0,0014.21,0008.64,0007.92
2022-11-11 19:20:00,,0826.9,5.00,0.00,22.2,21.0,00.0,31.0,24.1,10.8,-000.7,0019.04,0009.23,0008.06
2022-11-11 19:21:00,,0826.9,4.99,0.00,22.2,21.0,00.0,31.0,24.1,11.0,-000.5,0019.93,0009.32,0008.08
2022-11-11 19:22:00,,0827.1,5.02,0.00,22.2,21.1,00.0,31.0,24.1,11.2,-000.5,0020.23,0009.39,0008.11
2022-11-11 19:23:00,,0826.9,4.98,0.00,22.2,21.0,00.0,31.0,24.1,11.1,-000.2,0020.25,0009.44,0008.13
2022-11-11 19:24:00,,0826.9,5.02,0.00,22.2,20.9,00.0,31.0,24.1,11.0,-000.1,0020.09,0009.46,0008.14
2022-11-11 19:25:00,,0826.9,5.00,0.00,22.2,20.9,00.0,31.0,24.1,11.1,-000.3,0020.12,0009.46,0008.17
2022-11-11 19:26:00,,0826.9,4.99,0.00,22.2,21.0,00.0,31.0,24.1,11.1,-000.5,0020.53,0009.40,0008.15
2022-11-11 19:27:00,,0826.8,4.99,0.00,22.2,21.0,00.0,31.0,24.1,11.2,-000.6,0020.75,0009.41,0008.13
2022-11-11 19:28:00,,0826.8,5.01,0.00,22.3,21.1,00.0,31.0,24.1,11.2,-000.5,0020.55,0009.42,0008.12
2022-11-11 19:29:00,,0827.1,4.99,0.00,22.3,21.1,00.0,31.0,24.2,11.2,-000.4,0021.19,0009.36,0008.09
2022-11-11 19:30:00,,0827.1,5.02,0.00,22.3,21.2,00.0,31.1,24.2,11.1,-000.4,0020.33,0009.31,0008.07
2022-11-11 19:31:00,,0826.8,5.00,0.00,22.3,21.2,00.0,31.1,24.2,11.2,-000.7,0015.14,0008.74,0007.96
2022-11-11 19:32:00,,0826.8,5.00,0.00,22.3,21.2,00.0,31.1,24.2,11.2,-000.8,0014.47,0008.67,0007.96
2022-11-11 19:33:00,,0826.8,4.99,0.00,22.3,21.2,00.0,31.1,24.2,11.2,-000.4,0014.67,0008.65,0007.96
2022-11-11 19:34:00,,0826.7,5.02,0.00,22.3,21.3,00.0,31.1,24.3,11.2,-000.4,0015.12,0008.66,0007.97
2022-11-11 19:35:00,,0826.7,5.00,0.00,22.4,21.3,00.0,31.1,24.3,11.2,-000.4,0015.86,0008.69,0007.98
2022-11-11 19:36:00,,0826.8,4.99,0.00,22.4,21.3,00.0,31.1,24.3,11.0,-000.6,0015.65,0008.64,0007.95
2022-11-11 19:37:00,,0826.7,5.00,0.00,22.4,21.2,00.0,31.1,24.3,10.9,-000.3,0016.24,0008.65,0007.93
2022-11-11 19:38:00,,0826.7,5.01,0.00,22.4,21.2,00.0,31.1,24.3,10.8,-000.2,0016.22,0008.61,0007.92
2022-11-11 19:39:00,,0826.6,5.00,0.00,22.4,21.2,00.0,31.1,24.3,10.9,-000.1,0016.28,0008.59,0007.91
2022-11-11 19:40:00,,0826.7,5.00,0.00,22.4,21.1,00.0,31.1,24.3,10.9,0000.0,0015.86,0008.59,0007.90
2022-11-11 19:41:00,,0826.7,4.99,0.00,22.4,21.1,00.0,31.2,24.2,10.8,-000.2,0015.61,0008.54,0007.89
2022-11-11 19:42:00,,0826.7,5.00,0.00,22.3,21.1,00.0,31.2,24.2,10.6,-000.4,0015.80,0008.48,0007.83
2022-11-11 19:43:00,,0826.7,5.01,0.00,22.4,21.1,00.0,31.2,24.2,10.7,-000.6,0015.94,0008.42,0007.78
2022-11-11 19:44:00,,0826.6,5.00,0.00,22.4,21.1,00.0,31.2,24.2,10.7,-000.8,0015.94,0008.40,0007.75
2022-11-11 19:45:00,,0826.6,4.99,0.00,22.4,21.2,00.0,31.2,24.3,10.8,-000.6,0015.20,0008.31,0007.69
2022-11-11 19:46:00,,0826.6,5.01,0.00,22.4,21.2,00.0,31.2,24.3,10.9,-000.4,0014.33,0008.20,0007.64
2022-11-11 19:47:00,,0826.6,5.01,0.00,22.4,21.3,00.0,31.2,24.3,10.9,-000.2,0014.29,0008.16,0007.61
2022-11-11 19:48:00,,0826.6,4.99,0.00,22.4,21.3,00.0,31.2,24.3,10.9,-000.1,0013.31,0008.19,0007.64
2022-11-11 19:49:00,,0826.5,5.00,0.00,22.4,21.3,00.0,31.2,24.3,10.7,-000.3,0013.06,0008.26,0007.66
2022-11-11 19:50:00,,0826.5,5.01,0.00,22.5,21.4,00.0,31.2,24.4,10.9,-000.7,0013.64,0008.40,0007.73
2022-11-11 19:51:00,,0826.6,4.99,0.00,22.5,21.4,00.0,31.2,24.4,10.9,-000.9,0014.49,0008.40,0007.74
2022-11-11 19:52:00,,0826.6,4.99,0.00,22.5,21.4,00.0,31.2,24.5,11.1,-001.0,0014.45,0008.43,0007.75
2022-11-11 19:53:00,,0826.6,5.01,0.00,22.5,21.4,00.0,31.2,24.5,11.1,-001.0,0014.48,0008.41,0007.75
2022-11-11 19:54:00,,0826.6,4.99,0.00,22.5,21.5,00.0,31.3,24.5,11.1,-001.0,0014.56,0008.42,0007.76
2022-11-11 19:55:00,,0826.6,5.00,0.00,22.6,21.5,00.0,31.3,24.5,11.1,-001.1,0014.39,0008.42,0007.76
2022-11-11 19:56:00,,0826.6,5.01,0.00,22.6,21.5,00.0,31.3,24.5,11.1,-001.5,0014.79,0008.42,0007.74
2022-11-11 19:57:00,,0826.5,5.00,0.00,22.6,21.5,00.0,31.3,24.5,11.0,-001.6,0014.95,0008.40,0007.73
2022-11-11 19:58:00,,0826.5,4.99,0.00,22.6,21.5,00.0,31.3,24.5,10.9,-001.7,0015.33,0008.41,0007.72
2022-11-11 19:59:00,,0826.5,4.99,0.00,22.6,21.5,00.0,31.3,24.6,11.0,-001.8,0015.57,0008.34,0007.66
